GFSSE_250_spd_000.txt.gz
Wind_Speed
39 41 42 44 43 41 44 47 48 47 40 26 25 27 26 18 15 16 15 14 10 3 3 1 2 5 7 16 10 9 8 4 3 9 15 17 18 23 25 21 23 25 26
41 44 45 47 49 49 50 50 52 53 52 47 42 37 25 25 25 16 16 18 14 10 3 3 2 3 9 12 9 12 10 6 2 7 11 17 17 17 21 27 21 22 23
45 45 47 50 52 52 53 52 53 55 56 56 51 41 26 26 24 24 21 17 19 14 9 4 2 4 5 11 13 13 10 9 4 5 7 13 16 16 19 23 26 19 19
47 46 47 48 50 51 53 56 52 52 54 57 54 51 41 30 23 22 23 17 21 19 12 9 6 6 4 6 13 14 14 14 10 6 4 10 14 15 16 19 24 22 14
50 49 49 47 48 47 47 46 46 46 48 50 54 52 47 42 38 24 23 24 26 24 18 14 7 8 8 5 10 14 14 10 12 12 5 7 12 13 13 16 20 23 22
50 46 42 40 38 39 36 37 38 39 41 39 44 47 44 42 39 37 27 26 28 23 22 18 10 8 10 6 10 17 18 15 14 12 11 7 10 13 13 13 15 21 20
44 40 34 31 32 31 26 21 21 26 30 30 32 34 38 38 39 36 35 29 30 27 23 21 13 9 11 7 8 16 18 16 15 15 15 15 12 13 12 14 16 18 23
33 30 29 29 28 23 20 20 21 18 21 27 30 31 33 37 37 35 37 36 34 32 27 26 15 10 13 6 7 12 18 19 18 16 15 16 20 14 15 14 17 19 22
30 28 23 21 19 24 18 18 20 18 18 18 23 25 28 36 40 42 38 37 37 30 29 29 23 16 16 7 9 8 13 19 17 18 16 15 17 15 17 17 17 19 20
26 24 17 17 17 16 23 24 20 18 12 10 15 23 26 32 40 40 38 45 37 33 27 32 20 16 22 14 12 12 11 16 20 19 17 15 15 22 19 18 18 17 21
19 18 14 15 16 15 12 14 16 12 7 5 9 17 18 29 39 39 42 42 40 40 30 28 18 18 23 20 10 12 11 13 17 17 18 17 17 18 20 18 19 20 19
15 16 13 11 10 9 10 10 9 10 15 13 12 14 18 22 37 43 42 44 42 38 30 30 28 24 23 20 9 8 10 10 13 15 17 18 18 20 22 20 20 22 19
18 17 16 13 4 5 7 11 15 17 17 17 17 14 17 26 32 37 46 42 42 37 31 25 24 23 13 22 10 11 8 11 13 13 15 19 21 23 24 23 24 23 22
17 18 18 15 11 12 18 12 19 22 22 23 22 23 25 23 30 39 46 44 40 34 29 34 24 23 17 21 12 16 11 11 11 12 15 18 20 22 23 23 23 23 23
15 16 11 7 10 16 22 13 16 20 19 24 24 30 23 21 32 42 45 44 35 36 36 37 28 20 19 21 17 14 15 14 14 13 16 20 21 21 22 22 23 21 20
14 7 4 4 7 12 15 14 8 10 12 15 31 34 29 25 31 42 45 47 38 41 35 36 27 20 25 21 19 16 17 12 12 16 19 19 18 18 19 19 20 20 19
9 5 8 5 7 11 13 14 11 8 15 30 24 36 31 31 30 36 44 47 40 45 36 36 32 22 22 20 21 17 20 16 20 20 21 21 20 19 17 15 13 15 16
6 8 11 11 10 13 19 20 21 20 19 18 26 39 39 37 35 36 38 47 45 47 40 34 32 27 23 24 20 22 20 17 19 17 18 19 19 16 15 11 9 11 14
7 9 7 14 17 15 16 18 21 24 25 26 23 30 42 41 40 40 38 39 42 46 38 35 34 30 27 23 24 24 19 20 19 19 20 17 18 16 15 11 11 13 18
9 4 8 15 13 16 20 21 21 24 28 29 29 32 43 46 42 43 40 39 41 43 37 37 34 34 26 24 24 27 19 23 20 21 18 16 18 16 16 14 10 17 19
11 7 9 9 16 18 19 21 22 21 20 23 25 23 38 47 49 44 44 43 45 42 34 35 34 32 31 26 25 24 20 24 24 25 22 18 18 18 18 19 14 14 19
15 12 11 14 22 26 21 17 19 22 24 23 24 25 26 38 53 52 49 45 43 46 39 36 35 33 29 28 27 27 27 22 23 25 27 23 22 22 20 23 18 17 26
18 16 12 13 24 31 25 22 21 24 26 29 25 27 28 33 47 57 56 48 44 48 44 42 36 34 33 32 28 22 26 27 27 23 23 26 24 27 25 24 24 26 27
17 15 14 20 26 28 34 26 23 22 23 29 30 27 30 26 40 58 56 52 49 47 48 42 40 38 33 30 26 24 23 25 26 24 22 23 29 31 28 28 24 30 27
15 15 20 21 29 34 33 26 23 26 15 13 17 25 30 29 29 51 60 59 52 51 48 43 40 40 38 32 25 27 25 27 31 28 29 28 29 30 32 30 30 30 32
19 18 15 22 28 34 32 25 25 25 14 7 9 14 22 31 32 35 59 61 57 51 49 47 39 37 36 34 26 29 28 31 30 28 27 27 27 33 31 35 36 34 36

GFSSE_250_spd_003.txt.gz
Wind_Speed
45 45 44 44 43 44 42 44 39 46 26 26 26 25 32 32 27 15 13 13 13 10 7 4 2 5 9 12 14 11 9 2 6 10 14 18 20 21 25 25 22 25 24
44 47 47 47 49 49 47 47 46 48 49 40 40 27 23 26 23 18 19 20 19 14 9 7 7 2 11 11 12 11 11 7 4 8 12 14 18 17 22 25 26 22 30
41 46 48 48 49 50 50 51 51 49 51 51 47 49 43 32 26 24 26 24 22 18 12 10 9 5 9 12 12 10 11 11 8 7 5 11 15 16 16 20 23 24 24
45 47 48 49 50 50 49 49 48 49 52 53 52 50 51 43 33 32 34 28 23 21 16 14 11 6 7 8 11 11 12 12 11 13 10 9 12 14 15 17 21 23 26
43 41 45 45 48 48 47 46 44 42 40 44 47 53 53 50 40 33 31 28 28 25 19 18 12 10 8 6 9 12 13 13 13 12 13 9 10 14 14 15 20 22 26
39 42 43 43 43 42 40 36 36 32 34 35 37 40 47 48 45 45 35 28 32 28 24 17 16 13 8 10 9 12 15 14 13 13 12 12 13 12 15 17 20 22 24
42 48 50 38 33 31 30 29 25 23 25 25 25 29 37 39 43 39 43 40 33 31 29 27 22 18 11 10 10 13 16 17 14 12 14 13 14 16 15 16 18 20 21
50 51 39 33 30 25 22 20 23 19 19 19 19 23 30 30 36 39 40 42 34 36 30 29 24 17 13 11 9 11 15 18 15 15 13 12 13 17 15 15 17 18 20
48 39 31 27 21 16 13 18 22 21 18 18 16 22 29 30 33 42 43 39 40 39 37 33 27 21 15 12 9 8 12 17 19 17 16 15 14 13 14 22 17 18 19
37 34 29 22 15 13 10 19 16 20 18 13 12 14 22 26 36 47 43 45 42 39 38 34 29 25 19 16 9 9 13 14 18 19 17 15 16 12 12 18 17 18 22
30 25 21 17 11 11 12 15 14 12 14 9 7 11 16 21 29 42 45 47 44 43 42 36 31 30 22 18 14 11 13 14 15 19 18 16 16 18 17 15 19 18 20
23 20 18 9 10 13 17 18 15 14 16 15 9 8 9 14 24 35 47 46 43 48 43 37 33 26 25 20 16 11 10 9 11 13 15 16 15 16 16 19 22 22 22
20 16 17 16 15 16 12 15 13 11 14 15 13 11 11 13 18 33 43 49 43 44 45 39 34 26 20 20 19 11 8 6 9 7 11 14 15 18 18 19 18 20 20
15 16 17 20 25 20 21 13 17 12 15 20 17 17 15 13 17 25 42 46 43 47 48 43 36 28 24 23 21 12 10 6 4 5 10 13 12 16 18 19 20 20 19
14 15 13 17 12 13 16 7 12 16 14 25 21 22 20 17 17 23 35 40 43 47 46 40 35 29 25 24 22 16 9 8 8 11 10 10 19 17 17 17 18 17 16
15 12 7 7 9 10 8 6 6 10 19 16 19 25 24 21 17 23 31 41 44 41 44 41 38 32 28 23 23 21 12 10 11 12 13 14 17 18 17 15 15 11 10
9 8 8 5 9 10 11 10 10 9 10 17 10 15 29 29 21 19 28 39 44 39 41 38 40 36 31 28 23 23 19 15 18 14 11 15 14 17 16 15 10 8 8
10 11 11 9 7 12 18 18 16 17 17 21 19 20 17 26 25 24 28 38 45 42 39 39 37 39 28 29 19 23 21 18 15 12 15 12 15 12 14 12 8 8 6
15 18 18 13 17 17 20 18 19 18 22 25 25 21 17 28 29 27 27 35 45 45 38 38 38 40 31 27 23 22 23 18 16 14 17 16 14 11 10 14 13 13 13
10 8 10 13 10 12 16 21 21 23 21 24 26 30 24 27 33 32 31 33 44 47 40 40 37 39 37 31 27 22 21 26 19 16 16 16 17 15 14 11 15 16 14
12 0 7 9 15 19 20 18 19 17 20 19 21 22 28 28 39 38 37 35 39 46 43 43 41 38 34 35 33 27 21 22 22 20 21 25 22 18 15 14 16 17 18
19 11 9 9 14 27 25 28 20 18 20 21 21 23 21 24 38 44 42 42 39 37 42 45 43 41 36 35 35 29 23 21 22 17 20 20 22 21 20 20 17 19 10
25 14 14 15 19 28 32 32 27 19 18 20 24 26 26 24 32 44 46 47 43 42 43 48 43 43 40 39 34 29 25 26 25 21 22 23 21 20 23 22 24 23 24
23 14 16 20 26 26 26 36 27 23 21 24 26 28 31 30 29 40 47 51 45 46 46 49 43 42 40 38 37 33 26 25 23 21 21 23 23 21 21 26 29 28 27
14 19 28 19 23 29 29 33 27 24 18 15 14 14 21 28 29 34 46 53 49 47 47 51 44 42 39 39 36 32 30 30 21 21 20 28 28 29 28 28 29 28 29
16 16 19 19 23 26 33 33 26 23 12 8 7 7 10 24 25 27 43 55 54 51 49 52 47 44 38 36 31 32 30 25 23 26 24 30 31 27 25 23 28 30 34

GFSSE_250_spd_006.txt.gz
Wind_Speed
40 44 45 46 47 47 48 47 43 34 32 31 30 31 36 32 26 24 29 17 15 15 14 11 8 6 11 12 13 12 10 7 5 8 12 13 15 15 22 25 23 22 28
41 43 45 46 45 45 47 49 47 44 38 37 37 27 25 26 26 27 33 21 18 19 17 13 12 7 9 12 12 14 11 11 8 8 11 11 12 14 17 23 23 26 24
44 41 42 45 47 48 44 45 47 47 45 42 43 49 33 27 33 21 22 22 24 23 21 16 14 11 10 13 12 12 10 12 12 8 8 10 12 12 15 18 22 24 25
38 36 42 46 50 43 38 41 44 46 44 43 45 47 52 49 42 29 30 26 27 25 24 19 17 12 10 12 14 12 12 13 12 13 14 12 10 11 14 18 21 23 24
37 44 50 42 41 41 45 47 48 45 40 40 42 45 48 50 48 46 32 29 33 30 29 21 20 16 12 13 12 14 15 14 15 15 12 12 13 9 13 16 18 20 22
48 48 45 43 45 50 52 48 47 42 36 35 37 38 42 46 48 50 47 41 43 35 31 26 23 15 16 16 15 16 16 15 14 16 14 14 12 13 15 16 16 17 21
45 43 41 47 47 41 43 41 37 33 29 27 28 31 37 41 44 48 50 44 43 36 36 31 28 17 19 17 15 16 17 16 16 16 15 13 11 15 15 14 17 17 18
39 42 40 40 37 34 32 32 30 26 24 21 20 22 24 30 40 42 43 43 40 41 40 35 30 23 24 16 16 17 16 18 19 17 16 16 15 13 13 13 18 16 16
32 31 32 37 30 30 22 20 19 21 19 17 18 22 24 28 32 38 41 45 50 47 42 38 32 31 28 20 16 17 16 18 19 18 17 15 16 14 13 12 15 17 16
38 35 36 31 24 21 20 17 17 17 21 23 22 23 22 27 32 33 38 45 50 52 44 42 34 28 29 21 19 16 12 14 17 20 18 16 16 16 16 17 15 17 17
45 40 37 33 22 17 17 13 15 21 22 19 20 20 20 19 29 32 36 45 52 51 46 45 40 37 31 24 22 18 13 15 17 17 18 17 19 16 17 17 16 19 22
35 34 28 24 16 15 15 17 18 19 20 19 17 14 15 16 19 24 37 45 51 52 49 47 42 39 34 28 23 19 13 15 16 11 13 14 19 19 18 18 18 19 17
31 32 28 21 18 18 16 18 20 22 17 19 18 13 12 11 14 24 31 45 51 50 51 48 44 39 34 31 27 21 16 14 9 9 9 12 15 14 15 18 19 19 18
20 23 21 21 19 21 24 20 14 20 17 17 19 17 13 11 12 17 29 39 50 49 49 49 45 42 35 29 28 21 16 10 11 9 9 11 13 11 14 18 17 18 16
13 17 18 17 16 15 13 17 14 17 16 17 19 21 20 16 12 12 18 35 48 49 49 49 46 39 38 30 26 19 16 13 10 10 12 12 16 14 17 17 17 15 12
9 13 10 11 15 14 11 7 8 11 18 22 23 22 26 22 16 15 18 28 43 48 51 51 49 42 39 29 31 25 19 14 11 12 14 14 13 17 15 15 17 9 5
9 9 11 11 12 12 14 13 14 12 10 13 13 18 23 28 24 21 20 23 38 46 53 48 49 45 40 34 29 20 23 22 16 18 14 13 12 14 16 13 10 7 6
12 9 10 11 12 14 17 15 14 18 19 17 21 19 20 24 27 26 28 24 34 47 52 51 47 46 44 39 30 28 29 25 23 15 17 15 17 13 14 8 7 8 7
13 10 8 8 8 15 18 19 21 22 20 23 29 27 27 24 25 27 30 26 28 37 45 42 46 47 46 41 35 33 31 27 24 21 21 17 13 13 14 11 11 8 9
16 18 18 14 6 10 14 20 27 30 24 24 25 31 32 30 29 32 31 31 32 40 42 41 41 48 46 40 37 35 35 27 25 20 19 17 14 15 15 18 15 12 12
17 23 27 23 16 16 21 23 27 32 30 26 26 25 30 34 38 34 33 33 33 44 44 42 44 45 45 45 38 37 35 30 29 26 23 24 20 20 23 17 18 15 18
27 33 32 38 23 24 23 29 32 39 35 26 27 29 32 33 36 39 39 35 36 41 44 48 43 41 44 43 42 42 35 30 28 28 27 24 18 18 19 20 23 20 21
15 12 38 46 24 23 29 32 35 44 35 28 30 31 34 35 33 37 40 41 40 39 45 50 46 44 41 43 44 39 34 32 32 30 23 21 21 20 23 20 21 21 26
5 27 33 13 27 27 34 33 37 46 38 34 31 31 32 36 35 35 37 44 45 42 45 51 51 47 43 44 43 39 35 36 36 36 30 27 25 21 23 23 22 23 28
21 16 42 30 27 28 26 31 36 41 36 26 20 19 22 21 34 34 33 42 48 47 43 47 48 48 46 45 44 39 36 37 34 29 28 29 29 24 22 27 26 26 28
28 29 38 36 26 22 28 33 37 39 29 22 16 15 15 18 25 36 35 40 48 50 47 46 45 47 46 46 45 45 42 38 38 34 32 32 28 23 22 32 28 26 23

GFSSE_250_spd_009.txt.gz
Wind_Speed
39 41 41 43 44 45 45 45 46 45 41 38 34 27 25 29 31 31 31 24 18 17 14 13 11 9 11 13 13 11 9 7 4 6 10 11 14 15 21 24 26 25 23
42 45 46 46 45 44 44 47 47 44 43 42 41 30 32 29 33 32 26 26 21 20 17 18 15 13 11 12 13 12 11 9 9 5 6 7 16 13 18 19 25 23 24
40 43 48 46 43 40 40 46 50 50 40 35 38 39 31 33 29 27 22 22 26 23 20 22 19 17 16 14 13 12 10 9 10 8 9 9 13 11 16 19 22 23 24
42 42 41 42 43 41 46 42 41 41 42 44 41 40 39 42 33 27 28 26 29 23 20 24 21 18 17 18 15 12 11 13 13 13 11 13 11 12 14 19 20 20 24
38 43 40 44 43 43 43 44 46 48 50 48 45 40 40 42 47 32 33 30 28 24 23 24 26 20 20 17 17 14 13 13 14 16 14 12 10 11 12 16 17 19 20
37 40 44 40 42 43 42 45 50 46 42 41 39 34 37 42 44 44 49 40 32 30 25 26 27 25 23 18 17 15 15 14 16 16 15 14 11 12 11 13 12 16 17
42 39 39 32 34 33 38 41 45 40 37 32 30 28 32 39 42 43 40 40 37 35 32 30 33 28 25 20 18 17 15 14 16 15 14 14 11 12 10 9 11 12 15
43 41 38 32 32 38 38 42 35 31 31 25 24 19 22 30 37 39 41 40 39 39 34 37 38 31 27 23 20 19 17 15 17 16 16 15 13 14 12 12 12 11 14
42 40 39 40 39 35 39 28 23 23 25 19 16 16 18 20 25 35 42 42 44 45 42 44 43 36 29 24 21 19 19 15 18 17 18 17 14 13 14 15 13 15 14
37 36 32 29 28 27 23 20 18 18 17 16 20 19 19 23 24 29 34 41 42 42 46 41 42 38 33 25 25 23 20 16 17 19 20 17 16 14 14 17 16 15 15
29 32 28 23 24 20 21 18 18 15 12 10 17 22 23 23 24 28 33 37 41 47 45 43 45 43 37 30 29 25 22 18 14 17 18 17 18 15 16 16 17 17 17
30 24 21 21 20 21 17 16 16 16 14 18 19 19 16 17 20 22 31 33 37 47 52 43 43 41 40 31 30 25 22 18 15 16 15 16 17 13 16 15 14 18 17
24 19 17 20 20 18 14 19 22 18 18 17 16 14 15 11 10 15 19 29 33 44 50 51 46 46 42 36 34 26 22 19 13 12 14 15 10 8 12 11 13 18 17
18 15 14 14 16 15 12 15 15 14 14 16 19 19 18 12 11 13 13 23 33 38 46 50 47 47 48 40 36 29 24 20 14 13 15 10 10 8 8 15 15 15 14
13 9 11 9 12 13 14 11 7 7 13 16 17 17 23 20 17 14 12 16 25 36 43 45 47 47 46 40 36 28 26 20 16 13 16 12 12 10 12 15 14 16 11
12 9 11 8 9 12 16 13 10 13 14 15 20 23 21 23 23 17 15 17 19 31 41 47 47 46 46 41 37 31 23 22 16 15 13 14 12 10 11 13 15 12 6
17 11 11 7 8 9 13 12 10 14 16 18 19 19 28 29 28 25 21 20 21 25 42 46 44 49 46 43 40 30 23 19 19 20 15 13 12 9 12 13 11 5 6
16 15 14 12 11 12 12 15 17 21 20 22 25 27 25 25 27 27 26 22 24 26 38 49 45 47 48 42 41 36 29 28 23 24 17 15 13 12 15 13 11 12 10
6 21 21 12 18 5 8 13 17 19 24 33 28 26 30 31 29 30 27 27 27 27 31 44 48 46 45 47 44 38 29 34 28 26 20 20 14 13 16 12 13 13 13
15 15 34 33 11 15 14 15 18 22 28 35 39 30 31 33 37 32 34 27 25 31 30 42 50 49 48 44 44 39 37 35 34 28 25 20 15 16 14 13 15 18 17
22 33 36 38 19 31 15 14 21 23 31 35 44 32 28 30 31 40 38 33 29 32 30 37 49 54 47 45 51 41 39 39 37 29 23 20 18 28 23 17 21 18 18
11 19 34 18 25 31 26 18 22 27 34 42 46 36 28 32 34 34 40 39 35 31 33 36 44 53 49 49 52 44 36 38 38 34 32 22 22 30 26 20 20 23 22
19 23 24 23 13 15 24 26 22 26 33 45 49 37 31 26 35 36 40 39 42 35 35 36 43 43 44 50 49 45 38 38 41 39 36 35 27 31 28 25 20 20 21
21 19 8 30 9 25 21 21 22 28 34 44 46 37 34 24 23 34 36 42 45 41 37 36 43 45 44 46 45 46 41 42 40 42 39 38 34 31 29 26 23 22 22
21 24 20 22 23 37 39 24 28 29 32 42 42 34 29 26 23 22 31 40 41 45 39 38 43 46 44 47 42 43 42 44 41 40 40 38 37 35 34 33 28 26 22
19 22 26 29 36 35 37 32 31 30 34 41 38 30 29 28 27 24 27 35 39 40 42 43 42 48 50 47 46 44 44 46 44 44 43 40 37 36 34 33 34 32 26

GFSSE_250_spd_015.txt.gz
Wind_Speed
33 35 39 41 42 43 44 44 45 41 39 34 30 23 22 21 18 16 16 20 20 15 12 13 14 7 6 7 8 8 9 9 3 4 6 12 14 15 19 23 27 29 30
42 45 42 43 42 43 43 42 38 30 26 27 27 21 17 20 19 17 21 24 24 21 19 17 17 13 11 8 10 11 12 11 7 3 1 5 9 14 15 18 23 26 28
43 43 46 44 42 41 38 36 34 29 23 25 23 23 23 21 20 21 24 26 29 26 24 23 21 18 16 12 9 13 15 12 10 8 5 1 6 9 14 14 19 22 23
42 43 43 42 43 37 31 29 18 18 25 18 17 23 25 25 24 27 29 29 31 30 29 24 24 22 21 18 11 12 13 14 12 10 8 5 6 6 10 13 15 17 20
41 43 42 40 37 31 26 24 27 28 24 21 23 26 24 23 25 29 39 35 33 37 35 29 21 23 24 18 14 13 13 13 13 12 11 10 7 6 7 9 11 13 17
36 36 34 30 30 27 25 25 28 28 23 26 26 24 19 21 26 30 35 35 32 36 32 29 30 23 23 22 18 14 15 14 14 13 13 12 8 7 4 6 9 11 14
20 23 25 24 24 25 24 23 22 21 22 22 23 18 17 15 21 29 32 36 34 36 32 31 29 28 21 17 21 17 14 15 15 15 14 12 11 7 7 6 8 9 11
19 19 22 25 25 24 21 16 15 13 15 16 16 14 10 13 16 22 31 41 41 37 32 30 30 29 26 18 20 20 16 15 14 15 14 12 11 9 7 5 7 11 12
20 19 22 23 19 17 14 14 11 10 9 12 12 7 5 11 11 11 22 40 38 36 38 32 29 35 29 23 17 22 16 15 14 14 15 14 13 12 8 7 8 11 10
13 18 22 21 15 11 10 8 5 7 8 10 13 10 8 4 3 6 12 22 34 43 40 36 32 31 29 27 21 19 22 18 16 14 16 14 13 13 11 9 7 11 12
9 12 13 13 12 12 10 8 5 7 7 6 6 6 4 3 3 6 9 11 22 42 44 38 32 33 34 32 29 21 24 19 18 16 14 13 15 15 13 9 7 10 12
7 6 10 10 13 11 11 10 8 6 8 5 4 8 9 6 10 9 2 12 17 24 43 46 36 37 36 37 30 20 25 20 19 21 16 13 14 13 11 9 7 6 9
20 16 9 12 16 15 16 15 12 10 12 12 10 8 13 8 8 7 9 8 7 24 31 46 45 39 31 38 38 30 20 24 20 24 19 15 14 14 12 10 6 7 10
16 10 12 16 17 17 18 19 18 19 17 14 12 9 6 10 14 13 13 13 9 8 25 32 47 50 39 39 36 35 33 26 17 18 18 15 12 10 9 8 7 9 10
20 12 13 12 17 19 19 20 17 18 19 14 13 10 11 12 13 19 14 12 10 6 13 26 37 50 47 36 37 35 37 33 22 23 19 16 13 13 8 6 9 9 15
24 16 15 13 15 19 21 22 22 19 17 18 16 16 12 15 18 18 15 16 13 11 9 18 27 46 50 39 36 38 35 34 26 26 22 19 16 15 11 6 10 4 15
14 19 8 11 13 14 16 15 13 14 14 17 17 14 13 17 20 25 22 19 20 18 15 15 22 34 52 48 37 34 33 35 32 32 25 23 18 20 15 9 8 7 11
3 3 6 12 10 8 7 11 8 12 14 13 14 16 21 20 13 23 25 26 22 22 22 18 16 26 46 53 47 39 34 32 33 35 31 21 19 20 16 13 8 9 12
2 7 5 9 10 5 7 10 15 19 23 22 18 20 23 22 14 13 23 27 24 22 21 24 21 17 32 53 55 47 39 30 35 34 31 23 22 22 17 13 12 12 11
9 15 11 10 5 11 13 15 18 19 18 23 22 23 28 30 26 20 19 25 31 26 22 22 25 25 25 38 53 48 44 38 37 33 33 28 27 24 21 19 15 16 16
10 19 15 14 11 12 15 8 10 14 16 20 24 24 26 29 29 27 23 22 28 29 25 25 24 26 24 34 42 46 47 45 40 35 35 34 31 28 24 25 22 20 19
10 20 21 19 16 15 14 11 11 17 21 30 28 24 30 30 30 25 21 18 24 30 26 26 26 25 27 27 38 46 41 43 42 39 40 36 39 31 27 26 22 22 20
11 12 12 10 10 14 15 21 15 20 26 27 34 30 33 29 28 26 25 21 17 25 33 30 30 29 28 29 34 42 44 46 44 45 43 40 42 39 32 29 29 28 22
10 14 6 11 20 19 21 18 28 29 28 32 38 31 30 28 28 27 24 17 17 20 29 36 31 30 31 33 34 41 45 43 46 43 44 44 43 40 35 35 36 36 29
19 17 11 10 13 15 20 29 31 32 38 41 39 27 28 27 25 26 25 19 17 20 25 33 36 30 32 33 35 37 43 45 48 46 43 48 45 46 44 40 40 39 34
20 16 15 18 18 24 29 27 29 33 33 25 23 24 23 21 22 23 21 19 19 20 21 25 29 31 30 31 34 36 44 46 47 48 47 50 49 44 44 43 42 41 42

GFSSE_250_spd_021.txt.gz
Wind_Speed
30 33 35 39 44 45 47 47 45 40 36 34 31 29 25 22 22 25 22 27 25 24 19 19 16 11 11 11 15 16 9 11 5 5 5 10 11 14 16 19 21 24 27
35 40 40 45 45 46 47 48 43 40 38 31 30 28 22 24 24 26 26 27 25 22 18 23 21 16 15 10 11 11 11 11 8 2 8 8 8 11 13 15 18 20 23
38 39 41 43 44 44 44 44 41 37 29 24 25 26 23 26 27 29 30 29 27 21 21 24 23 15 14 13 10 12 10 9 18 1 10 9 5 9 9 11 14 17 20
43 46 44 44 43 40 39 35 32 28 21 20 22 23 28 27 26 29 32 32 24 23 25 22 29 26 19 15 16 14 11 10 15 14 13 9 6 7 8 8 12 14 17
44 45 42 41 39 39 36 23 20 16 21 22 18 18 26 29 31 29 30 32 30 26 30 24 24 28 23 18 18 15 13 16 17 18 14 10 7 4 6 7 10 12 16
42 41 38 38 39 39 38 28 22 17 18 20 23 28 24 25 25 28 32 31 35 30 26 12 31 27 26 25 19 19 18 17 14 13 12 10 9 7 6 6 8 12 13
36 35 35 38 39 43 34 12 13 11 9 11 15 22 26 30 28 32 33 36 32 33 30 26 18 22 27 23 24 19 17 12 11 13 12 8 9 6 5 5 6 12 11
29 33 37 40 37 32 22 10 6 4 5 6 9 14 17 21 29 28 31 40 38 36 34 32 28 23 26 17 18 20 19 17 12 13 12 12 12 6 5 4 8 10 11
28 29 29 28 20 17 10 8 5 5 8 11 5 5 5 6 16 23 29 41 43 33 37 33 34 32 30 27 19 13 22 14 10 11 14 10 12 8 7 3 2 7 13
14 14 13 9 10 10 11 9 10 14 13 15 17 19 16 12 8 8 16 33 48 41 35 29 31 28 26 28 31 24 22 16 14 10 9 11 11 9 9 5 5 6 9
10 8 5 8 6 8 7 8 9 9 14 17 20 21 19 15 7 3 7 13 30 46 41 30 32 34 30 26 28 29 26 19 14 16 13 15 13 10 9 7 4 6 8
7 7 10 11 7 8 8 5 8 9 12 15 17 19 16 16 15 13 4 1 6 35 47 37 30 31 31 28 25 27 26 21 16 15 19 16 15 11 8 5 5 7 7
9 8 11 15 16 10 11 6 4 8 9 8 13 11 7 6 7 6 8 9 4 3 29 47 38 30 34 34 33 29 28 31 24 15 19 17 17 11 8 7 8 10 7
6 5 6 14 16 18 18 15 13 10 5 7 2 6 2 5 3 4 5 4 8 6 6 38 40 43 37 37 36 28 29 28 30 22 20 19 15 14 8 10 13 7 10
12 10 9 11 17 19 18 20 21 21 27 6 10 13 14 16 13 6 2 1 5 2 8 12 25 44 42 41 41 36 30 30 27 29 25 19 16 17 10 11 15 14 10
15 15 12 13 13 13 16 19 18 14 12 9 12 12 13 21 22 21 16 11 2 3 1 9 25 34 53 50 43 42 38 35 32 28 26 25 21 16 14 13 16 13 9
22 20 15 15 13 10 7 10 10 5 3 3 3 8 13 18 18 20 18 20 3 5 13 7 32 29 36 55 54 48 42 41 31 38 29 27 25 21 18 16 16 9 14
25 22 15 16 15 11 6 6 6 2 5 7 7 7 11 18 16 18 19 20 7 9 20 24 32 34 27 35 51 51 52 43 42 32 33 33 28 25 19 19 21 22 15
29 27 19 24 18 16 18 14 10 5 4 6 6 12 18 18 20 22 24 23 25 16 31 40 39 36 35 30 32 41 48 51 43 43 37 32 30 28 25 25 22 20 19
37 32 25 27 22 17 24 22 21 13 10 7 10 20 21 22 22 26 29 34 27 22 24 31 38 40 36 35 30 33 36 46 49 42 39 32 31 30 28 28 25 20 29
41 31 30 24 27 29 25 21 16 14 13 15 20 22 22 27 31 31 34 39 38 27 28 28 29 36 35 34 33 28 35 41 48 41 42 38 36 34 31 27 33 37 32
41 37 36 29 27 20 22 20 17 18 24 27 24 26 25 31 36 37 42 41 29 26 23 28 27 30 36 33 34 33 28 37 49 45 42 41 37 37 31 34 36 36 35
30 28 27 33 26 30 32 26 21 24 28 27 28 31 32 35 37 39 35 25 24 23 22 26 32 27 32 33 33 34 35 30 47 51 43 40 34 38 37 36 37 37 37
26 28 25 24 27 24 29 28 22 26 28 31 35 35 37 36 39 29 25 24 21 20 23 25 29 27 30 30 35 35 34 36 36 56 50 42 39 38 39 39 40 40 42
26 28 18 20 26 15 14 16 23 26 30 34 38 41 43 41 33 24 21 21 18 21 25 22 23 27 30 38 37 33 33 35 36 44 56 49 46 42 44 44 42 46 41
26 25 20 17 15 15 15 19 22 30 36 36 31 36 29 24 19 20 19 17 16 21 22 18 21 26 34 38 41 37 34 29 30 39 50 52 49 46 47 38 50 45 40

GFSSE_250_spd_024.txt.gz
Wind_Speed
31 35 38 41 44 48 48 49 47 43 38 33 31 30 31 26 26 25 28 29 24 23 23 18 18 15 16 10 8 15 15 9 12 6 10 11 12 13 15 17 19 19 22
37 40 45 48 51 50 50 49 44 35 31 30 28 29 31 27 25 28 28 22 11 25 23 17 19 15 13 12 9 11 14 10 12 9 9 10 10 12 14 15 16 18 18
40 43 45 47 50 51 51 44 38 34 33 29 24 26 27 26 27 28 32 22 22 27 19 21 17 17 16 13 9 8 9 8 7 12 11 12 11 10 15 13 15 16 15
41 44 45 48 49 47 45 42 44 35 34 25 21 21 22 23 25 32 32 28 30 26 22 20 24 21 19 13 11 10 10 8 6 9 15 13 11 8 11 11 12 13 12
41 41 43 46 46 44 43 43 40 29 23 21 20 19 19 22 28 29 31 33 31 26 23 21 21 19 22 17 14 15 12 9 6 12 17 13 12 9 10 11 11 13 12
41 39 40 40 42 45 44 34 26 21 21 21 21 25 20 19 23 28 28 32 32 31 23 21 26 22 26 22 19 17 16 14 12 9 11 10 10 10 10 8 10 13 12
36 34 36 38 36 33 29 23 15 13 13 13 15 19 28 26 23 25 30 28 33 33 25 20 23 23 22 18 21 17 17 19 13 8 9 9 7 7 7 6 7 11 10
31 30 27 26 30 25 15 16 14 11 10 12 14 16 17 21 25 24 25 27 34 36 31 26 18 20 26 11 19 15 16 21 18 10 8 7 10 6 4 7 3 7 10
17 19 20 23 16 16 16 15 15 15 18 19 16 9 5 11 19 27 29 29 32 33 30 31 26 23 22 13 13 12 19 17 17 9 6 10 9 10 3 7 7 7 9
17 18 16 17 6 10 12 12 14 18 21 21 23 23 22 17 6 9 23 27 30 35 34 32 31 27 28 20 18 18 16 14 17 15 3 6 9 7 8 6 7 7 8
14 12 12 8 3 7 11 12 14 17 18 24 23 21 22 23 20 14 5 6 21 37 36 30 29 27 23 24 21 23 20 19 18 12 15 9 7 10 11 8 7 9 6
9 6 9 6 8 5 8 11 13 11 11 13 17 19 15 15 14 15 15 7 3 20 38 32 23 27 28 26 25 22 24 24 21 19 10 12 12 13 12 10 6 9 3
5 4 5 5 12 8 5 7 9 13 10 10 12 14 19 12 11 8 5 9 10 4 29 41 32 24 27 28 24 26 20 19 19 20 17 13 18 13 15 11 12 8 5
9 6 5 13 16 11 12 13 9 15 19 15 15 12 16 22 26 14 7 4 6 7 4 29 35 32 26 22 27 31 30 28 25 24 23 20 16 14 19 12 14 13 11
14 9 8 13 18 17 17 29 12 3 5 4 10 11 12 19 22 23 24 7 4 5 6 11 18 29 22 36 32 34 34 34 32 27 25 28 24 16 18 16 18 18 12
21 16 13 15 16 15 14 18 14 13 5 6 1 5 9 12 13 17 20 19 4 8 9 17 15 20 30 25 38 43 42 37 35 30 25 29 24 18 18 19 18 19 13
24 18 18 20 15 14 14 9 5 2 5 7 0 7 6 10 12 12 13 15 16 8 9 18 22 27 24 23 31 37 45 37 37 36 32 28 28 23 22 20 21 19 18
27 27 22 21 17 16 13 11 7 8 6 3 4 5 15 21 16 15 16 16 22 19 16 16 17 13 17 25 34 32 50 49 38 40 37 33 29 29 26 24 23 21 22
33 32 28 23 23 18 11 13 11 11 13 10 14 16 18 21 19 19 16 17 23 24 24 22 24 34 25 28 33 30 38 44 49 44 40 42 37 38 34 28 22 23 26
31 36 33 27 25 19 12 22 18 18 18 19 16 14 20 26 23 22 23 24 29 31 36 21 28 33 34 42 47 40 37 33 40 47 45 43 37 34 33 30 28 27 29
30 43 40 35 28 28 20 18 19 19 22 20 17 9 12 19 28 27 28 30 33 34 26 26 24 26 20 17 45 43 40 38 35 39 48 49 44 41 36 29 29 27 29
29 37 41 35 35 30 31 26 29 28 23 23 26 25 27 31 33 31 30 33 36 40 26 27 25 27 33 38 37 41 39 38 34 33 35 41 44 40 35 33 32 31 33
27 28 37 40 33 30 24 28 32 30 27 27 29 29 30 34 37 35 34 37 35 29 27 26 24 26 27 30 33 34 37 35 33 31 35 40 40 41 38 35 35 30 33
18 21 25 23 35 36 30 24 21 32 32 34 32 32 36 38 41 36 35 35 25 23 24 25 26 25 27 29 30 34 35 31 33 34 29 43 45 42 43 40 35 30 28
18 17 21 26 28 30 35 32 29 30 33 31 34 36 40 44 35 30 26 29 21 22 20 21 25 23 22 24 25 33 31 32 30 32 32 33 46 42 40 31 32 32 27
24 26 24 26 26 24 23 25 21 23 25 29 32 39 44 40 33 23 20 16 19 17 19 20 25 22 22 22 27 33 30 27 25 29 31 36 43 47 43 33 30 28 30

GFSSE_250_spd_027.txt.gz
Wind_Speed
29 36 38 43 46 48 53 51 47 41 34 26 28 25 24 24 26 25 27 29 31 30 19 20 13 12 12 14 7 6 9 10 11 13 13 15 15 17 17 17 16 15 20
34 37 41 44 47 50 51 46 37 34 34 30 27 28 23 25 28 23 30 30 29 32 22 20 15 13 14 11 9 8 8 11 9 11 8 14 15 14 18 16 15 12 14
36 38 43 45 46 48 47 42 39 41 32 27 26 23 22 25 29 25 31 31 31 28 21 18 21 15 18 10 5 5 6 7 5 9 6 14 15 11 14 14 15 11 10
36 41 42 42 42 45 44 43 30 26 22 22 22 19 18 19 22 25 29 28 28 25 18 18 21 16 16 13 7 3 5 6 4 5 7 15 12 12 13 15 14 13 7
38 40 39 38 38 44 42 30 20 20 20 18 17 15 15 14 17 27 27 30 29 22 20 26 21 22 20 16 12 7 5 9 6 7 9 12 11 11 13 11 12 13 12
37 37 37 33 36 40 32 19 17 18 19 16 14 12 16 14 14 25 25 29 34 24 22 31 31 23 17 12 15 11 8 10 10 11 12 7 8 8 7 7 9 10 10
37 33 30 33 36 33 19 20 22 21 20 18 15 14 13 16 17 21 24 26 34 29 24 30 28 24 18 15 20 15 10 9 13 13 15 9 5 2 2 5 8 6 8
32 24 26 30 32 21 16 19 21 25 27 27 22 13 7 8 17 20 18 21 23 34 29 26 27 26 27 30 18 15 13 8 14 17 14 10 6 7 2 4 4 7 8
24 23 24 25 21 12 12 18 24 25 27 28 29 27 19 10 3 13 19 19 22 23 34 30 26 23 27 27 21 10 12 10 9 18 17 12 8 7 9 3 6 9 8
22 23 20 19 16 9 4 16 21 24 25 23 24 25 24 22 14 4 14 21 18 21 30 35 30 21 25 25 19 13 12 12 11 15 17 10 8 9 9 5 7 9 6
17 16 13 16 12 2 7 11 17 20 19 19 21 21 19 21 19 17 8 14 24 24 26 32 31 33 23 22 22 13 9 14 12 11 14 10 8 8 9 8 8 9 6
17 13 9 10 5 3 8 12 10 12 17 25 27 20 22 22 18 15 12 8 3 14 27 32 33 30 31 24 26 22 17 19 17 16 13 8 8 10 9 14 11 9 5
17 14 6 4 3 5 9 9 12 16 11 10 16 15 13 17 18 12 11 9 7 11 10 28 30 23 26 25 24 20 20 20 21 20 15 18 17 15 14 15 11 13 8
20 15 7 10 8 8 14 15 15 10 7 8 13 16 23 21 11 9 8 10 11 7 11 4 33 32 24 21 24 24 19 20 20 21 20 17 13 17 13 13 12 15 11
17 19 14 14 9 13 13 4 9 7 8 1 3 7 14 14 14 17 13 4 5 5 5 7 14 32 32 27 19 15 21 23 25 23 24 21 23 22 18 14 13 18 18
19 22 18 17 11 13 9 9 13 8 2 6 4 5 7 8 9 9 8 14 12 3 9 8 9 18 24 24 19 13 17 25 29 29 28 27 26 24 25 17 13 17 20
21 26 23 22 19 17 11 8 7 6 5 7 3 5 5 8 12 9 8 11 9 8 5 9 16 16 20 28 21 16 17 16 26 33 32 28 31 27 24 23 16 19 20
22 26 27 28 23 22 15 9 7 7 6 9 11 10 12 12 18 11 12 10 12 15 11 12 12 20 21 28 14 13 15 18 24 32 32 32 29 28 28 27 22 18 21
24 25 28 31 27 25 21 10 16 17 12 12 11 11 15 14 11 15 18 19 15 17 19 22 17 15 19 22 29 30 24 26 26 28 34 37 33 34 31 30 26 24 21
23 26 31 33 32 27 24 19 22 20 20 15 17 17 16 13 13 15 25 22 21 19 21 22 21 17 24 31 32 28 35 39 37 37 33 33 38 38 37 35 32 30 27
25 27 29 38 36 33 31 25 27 19 19 18 18 17 17 18 23 23 31 29 24 29 28 26 25 23 24 27 26 36 38 33 30 34 39 32 39 42 39 38 35 31 29
24 27 29 41 37 38 34 25 23 28 20 21 20 19 24 26 26 29 28 30 34 30 30 28 25 27 27 24 30 34 22 27 33 36 38 34 32 37 43 38 34 32 29
18 24 32 36 40 42 35 35 34 31 27 30 30 31 29 30 32 31 32 37 32 30 27 27 29 27 27 28 32 42 41 34 36 36 36 36 32 29 36 46 41 36 34
18 20 29 33 38 38 35 33 36 34 31 34 37 34 36 36 36 35 35 31 27 24 23 23 24 26 26 29 30 35 36 29 23 26 31 33 27 32 29 38 37 37 32
16 14 21 25 23 30 35 32 29 24 24 30 34 38 36 35 38 37 27 24 26 23 18 22 21 24 26 27 28 30 28 30 30 33 32 34 28 30 36 37 38 37 32
17 14 17 23 26 21 22 31 33 33 35 33 32 35 35 36 40 38 34 27 27 22 19 20 20 21 24 26 27 27 28 27 29 30 31 29 31 32 27 40 37 38 34

GFSSE_250_spd_030.txt.gz
Wind_Speed
30 33 38 39 45 48 51 53 46 46 38 32 24 22 23 20 24 25 25 29 28 28 26 22 20 15 12 11 11 8 7 7 6 10 6 15 18 17 19 19 16 14 18
31 34 35 39 43 47 47 47 48 32 24 22 25 23 22 22 24 24 25 26 30 33 29 27 20 15 14 8 11 8 9 8 6 6 4 14 17 15 16 17 15 9 11
32 33 36 39 42 39 43 45 37 22 15 14 17 21 21 21 21 23 26 28 29 30 32 30 21 17 17 13 16 11 9 8 8 6 5 11 14 14 14 14 13 11 7
30 32 34 36 33 38 42 32 23 17 13 11 8 9 10 12 15 22 27 26 28 28 27 27 24 24 18 12 11 5 7 8 8 5 7 8 9 9 12 11 12 13 5
29 31 33 31 33 37 34 20 20 20 18 14 11 8 7 9 10 14 23 26 27 26 23 27 24 25 20 15 10 6 2 8 7 4 8 9 7 6 7 5 10 10 12
29 31 30 28 33 34 22 16 23 27 27 20 12 5 5 11 10 10 22 20 21 26 27 22 23 26 25 19 16 14 7 6 10 8 7 12 9 4 2 3 6 7 8
30 30 27 29 31 21 16 16 20 26 32 30 22 13 3 3 12 8 17 21 19 28 24 23 25 23 24 20 19 17 9 5 8 8 12 12 11 5 3 4 4 5 7
31 28 24 26 25 15 12 17 19 19 26 30 29 22 11 3 7 9 14 14 14 32 25 23 23 26 26 22 21 16 13 10 11 13 13 15 11 9 5 5 4 6 8
32 27 22 24 22 9 8 15 19 21 22 23 26 28 27 16 2 10 12 11 12 27 27 26 23 25 27 25 19 15 14 13 10 13 15 18 11 10 10 7 6 7 8
34 26 21 21 21 8 6 13 16 19 18 20 20 20 25 27 19 5 7 11 11 20 25 30 27 23 28 28 22 18 15 15 13 14 13 12 12 12 9 9 7 7 5
33 24 18 19 14 1 8 6 17 19 22 20 20 20 22 20 18 17 11 7 12 13 15 29 32 25 21 26 23 17 17 13 15 17 15 13 8 10 6 7 7 9 9
28 20 15 16 7 7 9 5 5 8 13 13 13 13 12 16 16 14 12 10 3 17 22 22 33 32 27 26 29 26 15 12 15 16 16 13 11 13 9 6 9 12 10
21 19 11 13 8 12 10 7 9 11 11 13 15 8 13 14 12 10 11 10 6 3 17 26 26 32 29 31 27 29 23 21 16 19 15 15 14 14 13 5 5 14 12
20 19 12 14 13 11 13 14 8 9 6 8 11 12 15 16 16 14 11 6 5 5 7 13 25 33 31 30 31 25 28 28 24 24 26 20 16 17 14 12 9 12 15
18 19 19 14 18 16 17 13 10 5 5 2 6 3 4 9 11 12 9 8 7 3 6 5 11 33 27 25 25 24 23 25 23 23 20 22 18 20 18 15 14 13 15
16 19 19 18 19 19 17 6 9 17 10 10 9 7 5 8 8 5 7 9 12 7 6 6 3 16 29 30 23 22 18 19 20 22 23 23 24 22 22 21 18 17 16
16 16 17 19 20 20 17 16 11 7 8 8 8 7 5 6 8 2 7 9 10 11 7 5 7 12 9 20 33 34 25 18 17 15 23 28 26 25 26 23 23 19 18
19 16 18 22 22 20 23 18 12 9 9 11 11 7 8 8 8 2 8 14 12 12 10 11 10 6 19 16 23 29 28 19 22 20 14 22 29 27 27 27 26 24 19
21 17 20 24 26 32 28 23 16 18 12 14 12 10 8 11 12 10 9 14 17 16 19 22 16 14 17 23 26 30 35 26 24 26 21 18 30 32 29 29 28 29 24
22 19 22 30 38 28 30 24 22 25 23 16 17 15 16 15 10 14 16 19 22 27 22 22 27 24 18 25 28 32 37 36 33 30 24 24 20 32 36 33 31 31 28
22 25 22 31 35 38 36 31 27 25 24 19 14 13 18 15 18 21 25 25 30 28 31 34 30 27 25 22 26 31 31 36 36 36 33 34 38 34 29 37 37 30 31
14 24 27 31 36 36 36 34 28 32 29 26 16 22 18 19 22 25 28 29 32 33 36 35 31 31 29 26 28 31 34 38 39 41 39 27 28 32 33 29 41 41 40
14 19 28 34 34 40 40 39 33 30 33 32 26 27 27 28 30 34 37 37 35 35 32 31 29 26 25 27 30 31 35 37 33 34 34 35 33 32 35 33 33 42 38
17 18 25 33 34 38 43 43 40 37 36 32 30 30 29 30 34 39 38 37 39 32 28 27 29 26 24 26 28 32 36 35 40 44 46 46 40 34 37 36 29 39 43
16 17 18 29 33 36 40 42 43 41 36 36 36 31 29 32 33 38 40 40 39 37 30 28 26 26 23 25 26 29 31 32 34 37 33 33 31 30 33 34 34 33 40
16 14 15 20 31 36 30 31 36 36 31 29 28 28 35 37 41 42 43 45 44 27 25 26 23 23 22 22 23 23 25 29 28 32 34 36 34 32 33 30 31 33 35

GFSSE_250_spd_033.txt.gz
Wind_Speed
30 30 32 34 39 44 48 44 43 36 31 25 25 24 24 22 24 28 28 30 30 25 24 25 19 18 13 8 13 10 10 5 2 5 4 14 15 15 16 15 11 14 18
29 29 31 33 38 41 39 40 34 29 24 19 15 16 19 23 23 22 23 25 28 27 28 27 22 18 14 10 12 15 9 6 4 4 2 12 11 13 14 14 12 10 12
28 31 30 34 38 34 36 31 26 21 20 15 11 11 12 18 18 21 23 24 27 18 25 24 22 18 18 14 8 15 9 8 8 7 4 8 12 9 11 13 13 9 8
28 28 29 34 30 35 28 21 19 20 16 10 6 3 6 9 12 18 24 24 29 27 23 25 24 21 19 15 11 13 12 10 7 6 4 5 13 10 8 10 11 11 8
27 28 29 33 29 31 20 11 19 25 21 12 4 3 1 4 5 8 19 25 28 27 25 25 26 24 22 18 16 14 12 9 7 3 4 5 10 10 5 5 10 10 7
26 25 28 31 26 25 11 12 16 23 30 26 11 1 3 5 5 4 11 23 23 24 23 23 23 25 23 22 17 14 5 8 10 8 5 5 10 7 4 4 6 8 8
20 25 28 28 23 21 10 13 13 16 25 30 25 9 4 5 7 5 8 17 18 22 23 18 28 22 23 23 21 17 11 9 11 14 15 10 12 5 5 4 4 6 8
25 29 29 26 21 16 8 10 11 13 18 24 30 23 12 8 5 4 6 18 16 19 25 23 22 22 21 23 22 20 16 13 10 10 6 13 16 7 7 5 5 5 7
32 30 30 25 19 7 6 8 12 12 14 16 22 27 28 19 10 5 9 10 11 22 26 26 24 19 20 22 20 21 21 16 13 12 14 13 13 13 7 8 7 6 6
31 28 28 23 17 8 1 10 12 14 14 16 19 20 22 23 19 11 6 10 5 16 25 24 21 20 19 26 23 23 21 15 13 13 16 14 14 14 11 7 9 8 7
28 27 25 19 14 5 9 6 11 15 12 13 14 14 15 17 17 16 12 7 7 8 21 27 24 20 22 25 24 22 20 14 18 16 16 13 13 9 9 6 8 7 8
24 23 19 17 10 7 13 7 3 2 8 8 12 14 13 14 16 14 14 11 4 8 11 16 30 28 25 23 27 25 22 12 16 18 18 16 12 10 9 10 9 11 7
21 19 14 13 10 9 12 9 4 3 7 14 17 20 20 15 13 11 11 10 8 8 11 18 18 26 27 22 23 25 25 16 14 14 16 17 16 12 14 11 9 11 10
17 17 13 12 13 10 14 11 8 7 3 7 9 13 15 14 13 12 10 10 10 10 11 3 23 23 25 29 27 28 26 23 18 15 15 18 17 18 16 17 14 12 8
14 16 14 12 14 9 13 14 16 8 4 4 2 5 9 9 8 15 15 18 17 10 9 7 3 21 25 24 26 28 28 29 25 23 21 24 25 20 18 16 14 15 15
14 15 15 14 17 11 14 15 17 18 13 7 9 5 5 4 5 5 7 11 13 14 13 7 6 2 15 26 16 20 28 29 25 26 24 24 21 23 24 23 19 18 17
14 14 13 14 15 11 14 16 17 13 2 4 10 9 5 4 8 4 11 16 11 11 8 8 12 8 6 20 26 22 20 19 17 19 24 24 24 25 25 24 24 21 19
14 14 13 10 6 5 24 24 21 18 11 6 8 8 6 7 6 4 5 8 14 14 12 15 13 10 10 13 13 24 28 28 31 24 22 19 21 25 28 26 25 26 22
16 15 15 20 26 31 33 29 26 24 12 10 9 9 9 9 8 8 8 9 10 17 21 23 15 15 17 18 22 20 22 28 29 26 25 23 18 18 23 27 27 26 27
14 16 22 27 32 31 31 30 29 28 20 16 13 10 11 13 16 9 11 16 20 21 24 24 23 26 27 24 24 27 27 28 34 37 33 30 29 25 23 23 24 27 27
14 17 24 31 32 35 25 30 31 22 27 18 21 13 16 11 14 15 18 19 26 30 33 32 33 33 34 32 27 29 34 33 38 37 40 35 36 32 30 28 27 31 34
13 14 26 31 32 34 37 31 36 29 32 25 23 20 18 16 18 19 25 31 34 37 35 35 36 35 33 29 29 31 32 34 35 46 47 49 46 41 39 34 37 35 32
19 12 21 31 31 34 38 40 35 32 31 30 28 25 23 24 23 25 28 33 35 35 38 38 38 32 26 28 26 28 32 36 35 36 40 46 50 46 44 32 26 34 38
29 21 18 27 33 34 37 40 36 33 31 36 30 29 29 27 26 28 29 33 36 37 40 46 43 34 28 26 26 26 29 31 33 34 34 36 39 42 40 37 38 38 39
38 34 24 24 29 33 38 40 41 41 36 34 31 29 30 31 31 28 34 38 40 45 49 45 31 26 24 23 23 23 23 25 28 28 34 34 36 41 42 46 47 40 39
46 39 31 23 25 30 36 37 40 41 38 33 32 27 26 28 28 31 37 41 45 45 35 25 20 18 19 20 20 22 22 24 24 34 33 32 34 39 42 41 40 37 36

GFSSE_250_spd_036.txt.gz
Wind_Speed
28 27 29 31 34 39 38 36 29 30 29 28 25 21 19 19 21 22 30 28 22 28 22 20 20 15 14 16 16 12 11 5 0 5 5 13 13 14 14 10 12 14 16
25 28 28 32 33 38 35 28 28 27 27 24 22 16 15 17 18 17 27 34 32 23 23 22 19 17 17 12 11 13 8 7 1 1 3 10 12 12 13 12 7 12 14
26 27 30 30 33 31 32 25 24 26 26 22 18 12 11 14 16 17 23 32 32 27 24 22 18 18 17 16 12 14 12 8 4 5 1 5 10 9 12 15 10 9 11
25 26 29 27 31 28 29 18 24 27 27 21 15 11 7 10 12 14 19 26 34 30 26 22 21 22 15 17 14 12 15 8 8 6 4 4 7 9 8 12 12 7 7
26 27 25 23 29 25 23 18 21 23 25 22 14 8 1 5 8 12 18 25 32 29 21 24 23 25 19 16 13 10 12 11 8 6 3 2 5 7 5 6 9 9 7
30 30 25 23 27 20 14 17 19 18 22 25 18 9 1 9 10 9 14 23 31 32 24 26 25 22 21 20 15 11 17 14 11 7 6 4 4 8 4 4 6 7 8
27 24 25 24 24 16 8 13 14 15 21 25 23 15 8 4 9 9 11 24 31 33 26 25 27 25 20 23 18 17 11 9 9 11 9 6 7 12 6 5 4 5 8
28 24 23 23 22 11 4 7 10 12 14 21 25 21 15 8 8 6 10 18 25 33 27 24 19 19 20 24 19 17 14 11 8 7 8 8 7 11 10 9 7 7 7
28 26 24 19 19 8 5 5 5 8 11 15 19 23 20 15 10 9 13 17 14 22 24 22 18 23 18 23 22 19 16 16 11 8 7 11 9 10 11 11 10 7 7
26 26 23 20 16 7 7 2 4 9 11 13 15 17 20 18 13 11 13 12 9 12 20 22 22 20 21 19 20 22 18 17 14 13 14 15 10 12 13 15 11 9 5
24 22 21 16 8 5 11 6 7 9 9 11 12 14 16 20 21 13 11 8 4 7 15 17 22 18 19 17 21 22 18 18 18 16 15 13 13 15 8 7 7 8 9
25 19 16 12 6 5 14 10 2 6 6 15 18 18 17 17 18 19 15 9 6 4 11 16 19 18 16 14 16 24 21 21 19 18 17 15 15 14 11 9 7 9 9
23 20 17 11 5 4 9 12 7 4 10 11 16 18 19 18 19 16 15 15 15 8 8 14 20 25 22 20 18 18 24 22 18 18 19 17 16 14 13 11 8 8 8
21 18 12 9 3 2 5 8 5 4 1 4 10 13 19 17 19 20 21 15 12 11 12 4 15 16 20 22 21 18 20 24 21 17 19 17 17 17 14 12 14 12 9
19 15 10 6 2 6 2 9 7 8 4 4 4 7 8 9 8 8 13 16 18 18 13 13 8 12 20 17 20 23 18 24 25 17 16 16 16 17 19 19 19 18 14
16 12 9 3 3 5 3 8 10 16 16 12 9 5 4 2 5 10 16 13 13 13 12 12 12 9 5 19 20 20 23 24 28 29 24 24 22 22 23 24 20 18 15
13 6 1 8 4 3 10 16 18 15 14 13 12 8 6 2 3 5 7 4 7 8 9 12 9 6 5 5 15 20 18 21 29 28 29 23 26 23 25 23 24 24 21
12 8 12 21 19 31 25 25 23 21 17 17 13 6 4 3 6 3 5 6 7 7 11 12 14 9 8 9 9 13 21 22 20 24 21 16 19 25 25 25 26 26 24
20 8 22 28 11 27 31 30 26 25 21 17 15 11 5 6 8 5 5 6 7 10 12 16 16 15 17 18 18 19 20 20 26 27 24 23 22 21 19 26 28 29 28
25 9 25 31 21 31 27 25 32 31 23 21 12 10 2 9 10 10 8 7 10 13 23 22 24 22 22 22 23 24 25 28 26 28 31 30 25 25 22 23 21 30 28
28 23 18 29 32 29 38 32 25 29 26 22 21 17 16 14 14 10 9 11 16 23 24 25 24 27 27 27 28 27 28 29 32 34 35 35 35 34 34 30 29 23 28
35 25 14 26 30 34 36 35 26 27 29 31 21 19 21 19 18 14 16 19 22 25 28 31 34 33 33 36 32 30 26 29 30 35 35 40 40 42 41 36 32 31 29
40 32 22 15 29 31 36 37 32 29 33 38 33 28 24 22 22 21 23 24 27 31 34 40 40 42 42 37 31 25 24 24 30 35 37 38 43 45 42 43 41 41 37
49 42 44 22 18 30 35 37 38 37 34 34 36 33 30 28 29 31 29 31 31 36 40 42 47 46 33 25 22 23 23 23 24 28 34 36 37 37 40 43 42 41 39
30 29 45 42 21 22 31 37 37 38 39 36 37 35 34 34 31 31 33 34 33 37 45 48 42 24 15 14 14 15 17 19 21 24 26 28 33 34 33 37 38 40 41
40 37 51 39 20 15 24 32 34 34 36 40 36 34 33 32 30 30 27 29 36 42 48 43 23 15 11 10 12 13 13 15 18 20 23 28 27 28 33 35 41 42 40

GFSSE_250_spd_042.txt.gz
Wind_Speed
25 25 23 22 23 26 28 31 26 22 25 27 23 14 3 10 19 20 21 19 20 27 28 15 19 20 15 10 11 12 8 3 6 7 11 16 14 11 8 10 11 11 13
30 23 23 21 22 25 26 22 20 22 24 24 19 10 3 11 27 32 28 16 16 18 22 20 16 21 16 10 11 11 11 5 4 4 8 11 14 13 12 8 8 9 10
30 28 23 21 20 24 24 19 18 20 22 21 18 7 1 13 26 41 37 28 19 19 17 21 19 20 15 9 12 17 10 6 4 3 3 6 10 10 13 10 4 6 6
26 26 26 25 20 20 19 18 16 19 20 19 16 8 5 13 21 37 41 36 26 25 18 20 22 18 19 12 18 13 10 6 6 5 2 4 9 7 8 12 9 3 3
22 23 19 16 18 17 14 14 15 19 19 22 17 9 5 14 20 31 44 39 28 27 25 20 20 20 17 14 13 11 12 8 6 5 4 4 8 8 6 9 11 11 8
23 21 19 16 13 9 9 12 15 18 18 22 18 12 7 12 23 29 45 43 32 25 31 29 21 19 19 13 6 11 14 10 11 9 3 2 6 8 4 4 8 10 10
24 20 17 12 8 8 5 9 15 14 18 22 21 15 11 9 18 26 45 45 32 27 25 25 26 24 21 19 14 14 13 7 12 10 6 3 3 5 8 11 7 8 10
22 19 12 10 4 2 4 6 12 14 18 22 25 17 13 9 9 19 30 38 37 28 28 27 25 26 22 20 17 14 14 11 9 12 8 3 3 4 5 9 10 10 11
19 16 11 7 1 6 5 4 12 16 17 20 26 24 16 13 9 13 23 28 40 28 28 20 27 26 24 19 18 15 13 11 9 9 9 5 4 4 4 2 10 11 11
17 13 5 6 5 10 10 7 13 15 18 19 24 27 21 18 16 14 16 23 36 32 30 25 18 25 23 19 20 18 15 15 14 12 12 10 11 9 8 6 5 12 11
15 9 3 4 9 13 14 8 11 18 18 18 22 24 24 19 19 18 18 14 30 34 24 24 21 22 20 19 22 21 19 18 16 15 15 14 13 12 9 6 5 4 9
13 6 6 8 11 14 16 11 13 16 19 21 22 23 24 19 15 13 12 13 13 21 30 27 22 21 23 21 20 24 21 19 19 20 17 17 15 13 11 9 5 6 6
8 1 11 12 14 17 16 14 16 15 17 16 18 20 21 18 16 16 11 9 9 11 14 17 19 17 20 19 18 21 27 23 22 20 23 21 19 16 13 12 10 9 5
6 6 12 13 13 17 17 14 10 9 12 12 11 15 18 17 16 11 12 11 10 8 10 11 12 16 17 17 17 17 17 23 28 21 25 25 22 19 16 15 14 12 12
9 13 11 15 14 14 16 15 7 7 6 7 9 3 10 11 8 10 11 14 16 15 13 7 7 11 15 15 18 22 21 20 20 27 26 25 24 20 19 17 16 16 14
17 16 14 10 6 14 17 11 12 13 8 6 5 2 1 4 3 7 8 10 9 12 13 13 7 3 1 11 17 18 22 23 22 27 26 23 23 21 22 22 19 17 17
21 27 14 8 3 7 13 17 16 13 11 13 9 5 2 0 6 4 3 5 4 4 5 7 7 6 2 2 4 7 19 24 25 25 24 27 26 26 25 26 22 22 22
24 25 10 6 5 6 10 17 16 13 14 20 12 8 7 7 10 11 7 3 3 1 1 4 7 6 4 5 8 9 12 13 24 27 32 31 33 33 30 29 30 23 24
14 18 10 8 11 15 15 19 18 15 18 19 19 11 12 11 14 11 8 4 9 6 5 6 9 7 10 13 17 17 16 17 18 22 27 33 36 36 37 33 30 28 28
3 4 10 19 22 12 20 13 19 22 24 24 19 16 14 17 17 17 15 12 10 11 9 10 11 15 17 20 23 27 27 23 22 24 29 33 33 37 39 33 28 28 30
7 10 11 11 11 12 24 28 19 24 32 31 24 23 19 21 18 19 13 13 14 18 16 13 16 23 23 27 32 36 36 31 29 30 31 33 38 39 38 38 33 29 32
9 2 10 8 1 11 12 18 23 33 32 35 32 28 28 26 23 20 20 18 18 18 21 21 22 27 31 34 39 42 38 32 32 33 33 34 37 40 41 41 39 35 32
13 7 8 6 9 14 13 19 23 26 32 31 31 27 30 31 25 22 20 23 20 21 25 28 28 35 36 35 37 36 28 27 26 30 32 33 34 34 35 38 45 40 35
15 13 13 10 14 21 27 29 27 36 31 31 28 28 30 31 30 27 27 24 23 27 31 31 33 33 34 32 34 28 20 16 18 21 24 26 29 34 36 40 37 38 41
26 22 21 23 25 27 28 30 36 36 23 26 27 35 29 29 31 33 30 31 30 34 33 32 31 35 30 28 25 19 12 9 12 17 19 21 26 29 32 39 39 42 37
19 32 29 26 30 26 27 34 36 31 23 31 26 30 31 32 31 34 32 36 37 35 32 32 32 30 26 26 21 16 9 8 9 14 15 20 23 26 28 32 38 43 43

GFSSE_250_spd_045.txt.gz
Wind_Speed
32 32 29 23 21 22 24 25 24 22 21 21 18 10 3 14 21 26 16 18 18 21 19 10 14 14 12 5 10 8 6 3 5 7 10 10 7 8 9 9 11 13 13
29 27 25 21 19 21 24 22 22 21 20 19 16 7 10 20 32 24 20 17 20 17 24 18 12 18 18 5 11 9 10 5 5 5 6 10 10 7 7 8 7 8 10
26 22 21 19 19 18 18 19 21 19 17 19 14 5 13 32 37 31 20 17 14 21 22 20 13 16 15 9 12 8 8 4 2 2 5 7 8 10 6 6 5 6 7
25 21 18 16 12 14 15 14 17 19 17 21 14 3 13 36 41 41 32 24 21 17 16 14 14 15 16 14 16 8 11 2 3 2 4 6 11 9 10 9 6 5 6
25 23 19 14 9 10 10 11 15 12 17 20 13 9 10 31 44 45 39 29 21 17 18 15 18 19 16 12 14 14 13 5 4 4 3 5 10 7 9 8 9 9 9
24 21 15 9 4 5 8 10 13 15 17 20 13 12 14 21 43 46 42 30 22 22 23 17 9 18 15 12 11 14 11 8 11 9 1 4 6 12 6 5 8 9 10
23 20 14 6 2 2 4 9 12 16 20 22 20 14 10 16 33 45 40 34 22 23 22 22 18 15 15 15 11 5 12 11 10 9 4 2 5 5 7 6 12 13 12
23 18 11 4 4 4 3 9 15 14 21 23 20 16 11 12 24 34 40 36 27 24 23 24 24 19 14 16 14 15 14 9 10 10 6 1 1 3 3 7 9 10 15
21 15 8 2 5 6 8 12 15 14 21 25 21 20 15 9 14 26 42 41 26 28 22 20 19 20 20 19 19 12 13 14 11 9 11 7 3 3 4 2 1 13 16
17 11 2 1 8 11 12 16 17 17 21 24 25 23 24 18 12 17 42 40 29 28 20 21 20 21 20 18 20 15 13 14 10 9 11 10 10 8 7 9 3 6 13
12 4 5 6 11 18 13 16 17 21 23 25 25 25 23 23 20 14 21 31 37 27 25 21 16 14 23 21 19 17 16 15 14 12 13 12 14 10 8 8 5 4 5
5 4 9 10 17 21 16 16 20 20 20 21 23 22 25 22 17 17 14 17 28 35 27 25 23 19 17 20 19 18 19 17 15 16 16 15 16 15 11 9 9 6 4
5 4 11 16 20 22 17 19 17 18 18 17 13 14 20 21 17 13 10 9 15 29 27 24 21 19 17 20 18 19 22 22 18 18 20 20 20 19 17 12 11 7 5
8 11 12 16 19 21 18 16 15 16 14 10 15 17 13 11 7 12 10 12 8 12 20 11 17 21 15 18 17 17 19 25 25 23 24 22 25 23 19 15 15 13 10
11 10 13 15 19 19 14 14 10 5 7 10 6 8 10 12 13 15 14 16 14 12 12 12 12 14 15 16 18 18 18 19 19 24 31 27 26 26 24 20 19 16 16
15 14 12 10 16 16 17 10 12 11 10 9 5 3 6 4 5 8 8 10 14 13 12 9 6 5 5 13 17 17 19 23 27 23 23 28 28 29 29 23 21 19 17
24 16 10 7 14 14 19 17 13 16 12 11 7 4 3 2 2 1 6 4 10 4 7 8 6 4 2 1 4 6 10 14 24 25 27 25 29 26 25 23 22 22 20
22 27 13 4 12 13 16 16 12 15 15 11 6 7 4 4 5 7 7 2 7 5 3 2 4 3 2 3 6 8 12 16 17 18 27 29 28 29 29 28 29 29 25
14 21 24 21 13 14 10 7 16 16 13 14 16 14 12 9 7 11 10 9 8 9 7 5 3 3 5 11 13 16 18 21 22 24 25 27 31 35 34 34 34 32 32
15 20 22 13 14 15 14 13 14 18 18 18 18 14 12 13 12 19 14 12 8 12 12 11 11 9 11 18 21 23 25 30 30 31 28 29 30 32 33 38 39 38 35
30 21 17 15 10 13 19 11 7 10 18 24 24 20 15 15 16 16 16 16 14 16 17 18 18 14 18 23 29 33 33 35 35 34 34 34 33 32 33 32 35 39 39
17 17 24 13 6 14 18 10 7 7 15 22 28 29 22 21 23 22 22 19 18 19 19 22 21 25 26 30 32 34 34 34 32 32 35 36 37 34 31 36 32 33 37
18 16 23 19 16 19 14 10 6 6 15 19 21 27 26 27 26 26 26 23 23 22 24 24 23 29 29 29 33 35 33 33 29 26 23 28 31 34 32 31 28 18 29
14 17 27 18 18 25 25 27 19 15 21 22 16 23 25 28 27 30 31 26 25 26 28 26 29 30 30 30 32 30 33 32 22 20 17 18 22 27 28 29 36 40 36
17 20 23 22 16 26 31 29 18 21 26 28 13 20 19 23 24 28 30 29 31 30 31 31 33 31 29 31 29 30 27 22 16 17 14 17 19 19 24 27 35 41 38
24 19 22 30 33 30 30 28 25 27 35 19 23 14 21 26 30 30 31 31 32 33 33 36 33 31 30 28 26 25 24 16 14 13 13 15 19 22 21 24 32 41 43

GFSSE_250_spd_048.txt.gz
Wind_Speed
33 33 29 24 20 18 18 19 23 20 21 18 19 15 11 18 19 18 19 22 23 18 9 6 15 14 7 11 12 8 7 5 6 8 10 8 5 8 9 11 12 11 10
29 28 24 21 19 16 14 17 17 18 18 16 15 8 10 21 24 29 18 17 16 19 15 9 13 17 12 13 10 8 7 3 7 9 9 10 9 4 3 7 8 8 8
28 27 20 18 16 10 11 13 15 17 13 14 9 5 16 30 39 28 21 31 22 19 16 16 15 15 13 10 10 6 5 6 7 6 5 10 9 6 3 2 4 4 5
29 26 20 17 14 8 9 12 13 11 13 11 5 7 21 39 40 27 20 23 27 24 17 22 14 11 11 12 12 6 2 6 3 3 5 10 7 9 10 6 5 7 7
29 25 19 14 11 4 7 9 10 11 12 9 4 10 28 40 34 30 25 23 18 27 22 16 9 12 9 13 15 11 7 2 1 3 2 6 10 4 10 8 8 9 10
29 23 17 12 7 1 4 8 8 10 13 15 10 10 31 36 36 32 25 25 17 19 21 20 7 14 13 14 11 15 12 7 7 6 2 4 3 7 7 10 9 11 11
25 20 15 9 3 1 6 9 9 13 16 18 16 12 23 35 39 33 26 17 16 22 21 21 20 10 14 10 6 10 7 9 8 8 3 1 2 0 4 6 9 14 13
22 15 10 5 3 5 11 12 13 20 22 22 18 16 17 37 39 35 31 22 16 17 19 20 13 8 13 13 11 14 11 8 12 7 5 1 4 4 3 4 6 7 17
20 12 8 2 12 13 16 18 21 24 25 25 25 19 16 20 35 39 33 27 12 15 16 14 13 12 9 10 11 13 13 10 15 12 8 6 5 4 3 4 4 5 12
20 13 7 2 17 19 22 23 24 26 27 28 29 26 20 13 19 34 30 25 23 19 14 11 12 11 10 13 13 15 9 12 13 10 10 11 11 9 3 4 11 7 3
13 7 3 7 20 22 22 24 25 29 29 31 28 32 34 25 14 16 32 27 19 17 20 11 12 9 10 15 15 18 14 11 13 11 9 11 13 10 7 4 6 7 5
12 7 5 13 25 25 23 22 22 26 27 26 25 34 28 9 15 12 16 23 26 19 21 15 16 12 12 12 17 18 18 14 14 14 13 14 15 12 9 8 8 7 3
11 8 7 17 24 24 22 18 15 29 27 25 16 19 13 15 9 4 3 18 29 28 23 20 21 17 16 8 16 16 18 19 18 17 18 18 19 19 15 12 10 9 7
21 16 10 13 21 22 15 20 10 7 9 5 10 11 17 17 16 10 9 6 10 22 31 22 16 18 13 17 17 17 16 20 23 23 21 21 21 22 20 18 14 15 11
23 18 9 4 17 17 13 15 12 9 12 18 7 8 10 14 16 14 12 14 13 7 14 22 9 10 10 13 12 16 15 17 20 25 28 28 29 29 25 24 19 18 18
33 27 25 6 10 15 14 12 12 11 13 15 10 6 6 8 9 7 8 12 15 15 13 9 9 11 11 10 12 15 19 20 22 24 24 26 24 25 29 27 25 20 22
21 19 17 9 7 16 18 12 11 17 17 14 8 5 5 5 6 4 3 5 13 8 10 8 6 5 3 1 2 5 8 9 12 15 24 26 29 29 25 26 26 25 23
25 14 20 21 12 18 20 19 15 19 16 14 10 12 5 5 2 4 5 2 7 12 7 4 3 4 3 1 4 9 11 13 14 14 15 20 23 30 28 26 25 23 23
25 19 29 34 16 19 19 20 18 20 20 16 13 13 12 11 9 9 11 9 7 10 11 10 7 5 5 4 7 12 17 21 24 28 26 24 25 25 29 30 28 29 29
43 36 20 20 15 19 23 21 15 22 18 19 14 14 14 13 15 14 13 13 15 16 14 14 13 12 10 12 16 19 25 27 28 30 33 33 31 30 29 25 28 32 35
8 11 14 9 14 17 22 22 18 16 19 21 19 15 16 15 17 14 19 19 16 18 15 17 18 20 20 20 22 26 27 30 32 30 33 34 34 34 32 29 27 29 33
16 19 14 17 17 24 24 21 17 14 10 0 16 25 25 22 19 16 18 18 16 15 15 16 18 22 20 23 26 28 28 31 30 32 34 33 29 29 34 33 29 31 31
17 17 12 21 17 17 14 32 19 15 3 6 10 19 26 26 24 21 24 24 24 24 19 20 23 26 24 27 29 29 30 28 28 30 31 23 18 18 20 32 33 29 24
25 11 12 19 19 24 24 26 23 20 12 17 18 16 28 27 24 28 31 29 29 29 27 24 24 27 28 29 29 29 28 23 28 29 8 20 14 18 13 19 26 30 13
31 29 18 22 27 26 34 28 33 31 24 23 28 27 23 22 26 29 30 24 25 26 26 26 26 26 30 30 28 25 21 25 23 21 15 14 15 16 17 17 19 24 29
32 30 25 23 20 30 34 39 35 31 33 34 35 20 24 25 26 23 24 21 23 28 27 27 29 33 30 25 26 27 25 23 24 19 17 11 14 20 24 21 22 24 29